W0QQ Weather Reports


Display with metric or nautical units.
time (UTC)temp
F
wind
direction
speed
MPH
gust
MPH
rain 1hr
in
rain 24hr
in
rain mn
in
humidity
%
barometer
mb
20260507153032 62 11 4.0 17.0 0.00 0.00 0.00 62 1016.6
20260507151611 61 216 2.0 15.0 0.00 0.00 0.00 66 1016.9
20260507150031 60 268 7.0 14.0 0.00 0.00 0.00 65 1017.2
20260507144615 59 11 4.0 14.0 0.00 0.00 0.00 69 1017.2
20260507143034 57 11 4.0 14.0 0.00 0.00 0.00 70 1017.1
20260507141625 56 201 3.0 14.0 0.00 0.00 0.00 73 1017.0
20260507140042 54 11 3.0 12.0 0.00 0.00 0.00 76 1017.2
20260507134632 52 11 2.0 9.0 0.00 0.00 0.00 79 1017.2
20260507133051 50 11 3.0 9.0 0.00 0.00 0.00 81 1017.2
20260507131505 49 11 3.0 12.0 0.00 0.00 0.00 82 1017.2
20260507130053 48 11 2.0 6.0 0.00 0.00 0.00 83 1017.3
20260507124505 47 227 0.0 6.0 0.00 0.00 0.00 83 1017.5
20260507123054 46 11 1.0 8.0 0.00 0.00 0.00 83 1017.5
20260507121511 45 11 2.0 9.0 0.00 0.00 0.00 82 1017.5
20260507120103 44 11 4.0 8.0 0.00 0.00 0.00 81 1017.5
20260507114515 44 11 2.0 8.0 0.00 0.00 0.00 80 1017.3
20260507113129 44 11 1.0 6.0 0.00 0.00 0.00 80 1017.4
20260507111558 44 11 1.0 6.0 0.00 0.00 0.00 79 1017.3
20260507110005 44 11 3.0 8.0 0.00 0.00 0.00 78 1017.1
20260507104543 44 11 0.0 5.0 0.00 0.00 0.00 76 1017.2
20260507103129 44 11 1.0 8.0 0.00 0.00 0.00 76 1017.4
20260507101553 44 11 1.0 8.0 0.00 0.00 0.00 75 1017.2
20260507100131 44 11 1.0 8.0 0.00 0.00 0.00 74 1017.2
20260507094542 45 11 2.0 8.0 0.00 0.00 0.00 74 1017.3
20260507093134 44 11 2.0 6.0 0.00 0.00 0.00 73 1017.4
20260507091541 44 11 2.0 9.0 0.00 0.00 0.00 74 1017.5
20260507090128 45 228 0.0 6.0 0.00 0.00 0.00 74 1017.6
20260507084548 45 11 1.0 5.0 0.00 0.00 0.00 74 1017.6
20260507083002 45 11 1.0 5.0 0.00 0.00 0.00 74 1017.7
20260507081553 45 11 0.0 5.0 0.00 0.00 0.00 73 1017.7
20260507080012 45 11 1.0 5.0 0.00 0.00 0.00 73 1017.6
20260507074558 45 11 3.0 9.0 0.00 0.00 0.00 73 1017.6
20260507073013 46 11 0.0 5.0 0.00 0.00 0.00 71 1017.7
20260507071610 46 11 0.0 3.0 0.00 0.00 0.00 69 1017.9
20260507070025 47 11 0.0 3.0 0.00 0.00 0.00 68 1018.1
20260507064626 48 11 0.0 3.0 0.00 0.00 0.00 67 1018.1
20260507063031 48 11 0.0 3.0 0.00 0.00 0.00 66 1018.2
20260507061618 49 243 0.0 6.0 0.00 0.00 0.00 65 1018.3
20260507060036 49 11 1.0 5.0 0.00 0.00 0.00 63 1018.4
20260507054620 49 11 1.0 6.0 0.00 0.00 0.00 63 1018.3
20260507053039 49 11 2.0 6.0 0.00 0.00 0.00 63 1018.4
20260507051634 49 11 2.0 5.0 0.00 0.00 0.00 62 1018.3
20260507050053 49 11 2.0 9.0 0.00 0.00 0.00 62 1018.3
20260507044517 49 11 2.0 9.0 0.00 0.00 0.00 62 1018.4
20260507043104 49 11 2.0 5.0 0.00 0.00 0.00 61 1018.4
20260507041539 50 11 3.0 8.0 0.00 0.00 0.00 60 1018.4
20260507040121 49 11 2.0 6.0 0.00 0.00 0.00 59 1018.4
20260507034545 49 11 2.0 6.0 0.00 0.00 0.00 58 1018.5
20260507033132 49 24 1.0 3.0 0.00 0.00 0.00 59 1018.6
20260507031552 50 20 0.0 1.0 0.00 0.00 0.00 59 1018.4
20260507030004 50 20 0.0 0.0 0.00 0.00 0.00 56 1018.4
20260507024607 50 20 0.0 0.0 0.00 0.00 0.00 54 1018.5
20260507023018 50 20 0.0 0.0 0.00 0.00 0.00 57 1018.3
20260507021614 51 20 0.0 0.0 0.00 0.00 0.00 58 1018.2
20260507020027 53 20 0.0 0.0 0.00 0.00 0.00 51 1018.0
20260507014610 53 20 0.0 1.0 0.00 0.00 0.00 50 1017.9
20260507013039 54 20 0.0 1.0 0.00 0.00 0.00 49 1017.9
20260507011623 55 20 0.0 0.0 0.00 0.00 0.00 47 1017.8
20260507010042 56 20 0.0 1.0 0.00 0.00 0.00 46 1017.6
20260507004501 57 20 0.0 4.0 0.00 0.00 0.00 43 1017.6
20260507003048 57 11 1.0 4.0 0.00 0.00 0.00 42 1017.6
20260507001505 58 307 2.0 9.0 0.00 0.00 0.00 42 1017.7
20260507000053 58 33 0.0 5.0 0.00 0.00 0.00 42 1017.5
20260506234514 58 30 1.0 10.0 0.00 0.00 0.00 43 1017.6
20260506233123 58 11 2.0 10.0 0.00 0.00 0.00 40 1017.5
20260506231544 59 357 4.0 13.0 0.00 0.00 0.00 39 1017.7
20260506230129 59 351 1.0 9.0 0.00 0.00 0.00 41 1017.7
20260506224546 59 55 3.0 10.0 0.00 0.00 0.00 39 1017.6
20260506223131 59 11 5.0 13.0 0.00 0.00 0.00 39 1017.7
20260506221552 59 34 7.0 14.0 0.00 0.00 0.00 39 1017.7
20260506220007 59 330 2.0 16.0 0.00 0.00 0.00 42 1017.7
20260506214611 60 27 4.0 11.0 0.00 0.00 0.00 40 1017.9
20260506213024 60 288 2.0 11.0 0.00 0.00 0.00 42 1018.1
20260506211621 60 22 6.0 12.0 0.00 0.00 0.00 41 1018.4
20260506210041 61 294 2.0 10.0 0.00 0.00 0.00 41 1018.5
20260506204623 60 20 2.0 13.0 0.00 0.00 0.00 43 1018.9
20260506203041 61 28 1.0 11.0 0.00 0.00 0.00 45 1019.0
20260506201622 60 308 1.0 12.0 0.00 0.00 0.00 43 1019.1
20260506200049 60 65 1.0 8.0 0.00 0.00 0.00 42 1019.2
20260506194631 59 29 1.0 9.0 0.00 0.00 0.00 43 1019.2
20260506193045 58 63 5.0 11.0 0.00 0.00 0.00 39 1019.4
20260506191502 59 331 3.0 10.0 0.00 0.00 0.00 43 1019.3
20260506190055 58 27 3.0 12.0 0.00 0.00 0.00 46 1019.4
20260506184511 57 44 2.0 10.0 0.00 0.00 0.00 46 1019.7
20260506183102 57 54 2.0 12.0 0.00 0.00 0.00 45 1019.8
20260506181519 56 290 1.0 6.0 0.00 0.00 0.00 44 1019.9
20260506180106 56 41 5.0 9.0 0.00 0.00 0.00 46 1020.0
20260506174517 55 45 5.0 11.0 0.00 0.01 0.00 44 1020.1
20260506173124 55 22 2.0 10.0 0.00 0.01 0.00 48 1020.3
20260506171531 56 77 5.0 13.0 0.00 0.01 0.00 46 1020.3
20260506170107 56 33 5.0 10.0 0.00 0.01 0.00 43 1020.4
20260506164518 57 21 3.0 10.0 0.00 0.03 0.00 42 1020.3
20260506163108 55 20 3.0 11.0 0.00 0.03 0.00 44 1020.1
20260506161534 55 358 4.0 11.0 0.00 0.03 0.00 47 1020.2
20260506160110 55 53 2.0 9.0 0.00 0.03 0.00 48 1019.9
20260506154525 54 39 5.0 12.0 0.00 0.08 0.00 49 1019.9